Wetbulb
67.78 66.99 61.71 58.29 56.65 59.40 54.20 55.58 59.43 58.17 60.63 66.27 65.71 64.25 63.11 64.90 62.43 60.23 70.75 70.46 72.59 74.32 76.26 76.17 77.22 76.64 75.32 75.21 75.21 75.44 75.79 75.82 75.77 75.74 75.49 75.49 75.36 75.31 75.24 75.28 75.09 75.13 75.12 75.22 74.76 74.58 74.33 74.35 74.35
58.48 58.66 58.02 56.10 54.59 52.35 54.29 57.49 57.48 60.32 65.01 67.04 67.09 66.92 65.62 64.16 68.48 68.32 67.65 71.55 73.15 74.90 76.33 76.30 76.74 76.57 75.15 74.96 75.24 75.49 75.22 75.17 75.22 75.11 75.01 74.91 74.71 74.35 74.09 74.04 74.28 74.47 74.48 74.53 74.62 74.60 74.46 74.21 74.18
60.15 57.07 56.23 55.02 53.44 49.77 52.58 57.74 60.00 63.26 66.63 66.33 65.43 68.35 67.12 65.48 68.25 68.92 71.10 71.99 73.22 73.94 75.62 76.32 76.49 76.32 75.66 74.88 75.47 75.59 75.39 75.24 74.68 74.28 74.31 74.33 74.26 74.03 73.80 73.61 73.60 73.66 73.57 73.36 73.38 73.85 74.16 74.24 74.34
56.22 56.91 54.45 51.56 49.32 50.41 55.63 59.18 63.30 65.39 66.00 67.26 67.44 64.80 68.93 71.34 69.76 71.20 71.48 71.36 71.08 72.57 75.00 76.07 76.41 76.39 75.92 75.13 75.44 75.82 75.52 75.14 74.86 74.14 73.92 73.84 73.74 73.55 73.28 72.98 72.76 72.84 73.12 73.45 73.77 74.02 74.10 74.39 74.60
56.29 54.76 52.31 49.53 48.29 52.58 58.71 60.67 65.05 64.36 64.82 65.97 66.39 64.15 66.27 70.96 70.88 70.33 69.96 70.24 69.76 71.85 74.09 75.45 76.23 76.27 75.92 75.49 75.34 75.54 75.34 75.27 75.12 74.28 74.01 73.86 73.59 73.13 72.78 72.51 72.74 73.22 73.78 74.26 74.44 74.49 74.50 74.46 74.36
54.96 53.52 50.70 49.21 48.58 56.60 60.57 61.81 64.32 64.28 65.52 66.17 65.19 65.25 67.39 71.61 68.91 68.75 69.75 69.52 70.43 71.39 73.13 74.05 75.34 75.86 75.72 75.69 75.37 75.12 74.77 74.57 74.44 74.05 73.82 73.59 73.31 73.19 73.00 73.12 73.42 74.31 74.70 74.62 74.60 74.45 74.31 74.09 73.79
53.24 52.43 48.65 47.67 48.89 56.99 59.55 64.04 62.89 64.61 65.27 65.01 68.05 63.61 68.46 70.06 69.95 70.08 69.30 70.57 70.81 71.64 71.98 72.80 72.82 73.94 75.12 74.99 74.72 74.44 74.32 74.27 74.04 72.65 71.75 72.84 74.13 74.38 74.33 74.50 73.94 73.84 73.41 73.38 73.47 73.27 73.24 72.36 71.77
53.45 52.43 47.54 47.42 47.76 51.51 61.74 63.18 65.03 64.87 64.45 69.71 69.34 63.00 65.05 70.97 71.77 71.86 70.31 70.29 70.69 71.14 71.27 71.72 72.94 72.59 72.81 72.86 74.67 74.82 74.62 74.12 72.06 70.86 71.42 73.71 73.43 73.72 72.82 71.55 71.99 71.86 71.69 71.37 71.65 71.05 71.69 71.22 70.40
51.94 51.24 50.24 50.06 48.52 52.13 62.54 61.41 64.11 64.78 66.30 67.44 68.68 68.27 69.99 72.59 72.49 71.59 69.58 69.67 70.32 70.96 71.71 72.08 72.14 73.00 73.43 73.58 74.10 74.42 73.77 72.57 71.01 70.58 68.59 66.58 68.75 68.01 66.22 68.84 70.81 70.49 70.28 70.34 69.92 70.09 70.03 70.32 70.12
52.84 50.83 51.64 52.81 52.25 57.60 62.20 62.67 63.42 62.57 64.49 65.13 66.71 69.98 71.93 71.83 71.66 69.89 68.38 67.98 68.93 69.82 70.82 72.17 72.84 72.85 73.09 72.40 72.50 71.53 70.07 69.12 67.87 67.75 66.75 66.57 67.57 68.36 66.34 66.37 66.69 66.06 66.34 66.43 66.18 65.93 66.14 66.95 66.53
50.50 50.23 51.00 53.28 56.39 61.13 62.55 62.42 64.13 61.72 61.64 64.62 64.22 68.53 70.73 70.90 71.23 70.34 68.76 68.14 69.00 69.27 70.54 71.56 72.86 73.17 71.82 70.50 71.21 69.31 68.53 67.31 67.14 67.31 67.92 67.31 66.99 66.88 66.51 66.74 66.88 67.26 66.67 66.85 67.24 67.29 66.81 67.05 66.91
49.64 51.73 51.37 52.28 54.51 60.48 60.92 64.10 62.10 62.47 63.60 66.97 68.10 70.07 70.63 70.45 70.64 70.84 69.32 68.00 69.30 69.51 69.62 70.89 71.62 72.05 71.89 71.13 69.74 69.35 67.78 67.11 66.46 67.24 66.87 67.04 66.51 66.92 66.80 66.59 66.73 66.90 66.79 66.37 66.25 65.69 65.58 65.25 65.21
50.00 51.69 51.84 52.67 51.45 57.33 61.55 61.94 62.83 62.34 65.17 67.42 68.34 70.24 69.83 70.49 71.02 71.78 71.60 69.20 69.83 70.03 69.15 69.84 71.05 71.31 71.31 71.20 70.16 69.42 69.30 68.48 67.19 67.15 66.84 66.89 66.87 66.85 66.77 66.69 65.72 64.13 63.62 63.52 63.00 63.12 62.89 62.77 62.80
52.25 51.47 52.27 52.61 50.38 52.75 57.74 60.33 62.18 63.49 65.41 67.00 68.00 69.39 70.00 70.26 71.02 71.64 71.56 69.86 69.32 71.32 70.15 69.89 70.50 71.45 70.77 69.92 70.47 69.93 69.83 68.29 67.23 66.62 64.81 63.74 63.33 63.14 62.92 62.70 62.02 61.79 61.19 61.00 60.60 60.04 59.84 59.40 59.55
51.93 50.73 51.25 50.74 50.49 52.71 56.78 55.12 58.33 62.55 65.00 65.63 67.80 69.36 69.79 70.41 71.40 71.27 72.05 71.64 70.38 71.58 72.23 71.07 70.77 71.32 70.74 69.35 68.90 67.17 67.27 66.65 65.39 63.57 63.21 62.49 61.85 61.51 61.26 60.67 60.18 59.58 59.45 59.05 58.77 58.33 58.18 57.07 56.97
50.49 50.04 48.54 50.88 54.65 55.85 56.72 51.55 57.47 63.21 64.75 64.32 66.46 68.09 68.96 70.23 71.15 72.00 72.78 72.80 72.22 71.62 72.36 71.83 70.48 70.48 70.27 68.35 66.10 66.61 65.82 63.85 62.39 61.86 61.47 60.74 59.96 59.49 59.56 58.53 58.10 57.75 57.40 56.75 56.03 55.24 54.48 54.56 54.71
49.73 47.56 47.63 49.03 51.55 57.54 55.08 53.43 57.43 63.36 64.96 64.49 65.96 67.25 68.17 69.39 70.75 71.89 72.12 72.43 72.55 71.22 71.74 70.99 68.84 68.98 68.79 66.18 65.93 64.34 63.01 61.66 60.75 60.32 59.15 58.52 57.63 57.10 57.03 56.40 56.28 56.21 55.24 54.79 54.33 54.09 53.91 53.25 53.69
46.00 47.08 47.61 47.72 50.96 51.83 53.06 53.54 56.11 60.84 63.87 64.49 65.35 66.52 67.20 67.92 69.23 69.70 70.69 70.96 71.65 69.03 67.68 67.09 65.59 65.94 66.07 65.39 63.49 61.67 60.79 60.26 59.78 58.28 57.07 56.48 55.86 55.39 55.36 54.84 55.04 54.85 53.98 53.94 53.72 53.32 53.65 53.05 52.96
48.15 46.89 46.32 49.00 50.41 49.51 50.38 50.90 52.10 55.65 62.36 63.44 64.92 65.67 66.23 67.09 69.25 68.76 67.33 66.88 64.61 64.48 65.29 65.29 65.44 65.65 65.79 63.92 62.30 62.29 59.38 58.38 57.33 56.37 55.06 54.80 53.80 54.30 54.50 53.80 53.82 53.93 53.23 52.89 53.26 52.79 52.35 52.02 53.16
47.23 46.68 47.46 49.83 50.17 49.97 49.72 51.23 51.48 53.51 58.27 61.53 63.76 64.50 65.06 65.71 62.30 61.43 62.61 63.29 63.33 63.77 64.32 64.25 64.17 64.99 65.04 64.47 63.45 62.52 60.00 57.70 56.85 55.52 54.09 54.04 54.00 53.88 53.57 53.32 53.05 53.36 52.46 52.90 52.70 51.21 48.88 49.15 50.59
48.06 47.69 48.21 48.30 49.43 49.74 49.33 49.56 50.59 51.99 58.28 61.28 60.59 60.89 61.51 60.95 61.23 60.56 61.28 62.28 61.55 60.66 60.33 59.83 59.88 59.87 60.18 60.77 60.21 59.67 59.55 59.42 55.87 53.08 52.26 52.83 53.31 53.51 53.57 53.42 53.09 53.02 52.71 51.37 49.68 49.37 47.93 45.78 48.63
46.61 49.94 49.48 48.27 48.35 45.56 48.52 44.57 48.61 49.62 52.92 54.34 58.90 59.75 59.54 59.57 60.06 60.67 60.70 59.28 58.16 57.34 57.90 57.93 57.87 57.53 57.72 58.42 57.54 55.94 54.41 52.91 52.66 49.82 52.01 52.60 53.12 53.18 53.11 53.50 53.48 53.25 52.29 50.49 49.88 50.02 49.13 48.37 46.03
47.93 49.44 49.08 48.91 48.30 47.17 46.51 45.79 47.86 50.84 50.91 52.81 57.61 57.84 56.74 58.28 59.51 59.42 58.33 57.01 56.27 56.40 56.04 56.52 56.03 56.06 55.80 55.70 55.25 53.55 50.71 50.90 49.42 50.68 51.99 52.17 53.01 53.38 53.17 53.65 53.73 53.10 51.87 50.88 50.19 49.44 48.89 48.33 46.51
51.06 49.33 48.64 48.07 47.73 43.40 44.97 45.66 47.04 50.54 50.42 53.71 56.85 56.62 55.47 54.68 54.78 55.08 55.54 55.41 54.77 55.37 55.46 55.71 55.86 54.80 54.61 52.72 50.50 49.73 50.41 49.58 50.51 49.83 49.74 50.87 51.44 52.22 53.06 53.01 53.39 52.93 52.29 51.60 50.52 49.42 48.90 48.38 47.91
49.99 48.55 43.83 42.13 42.14 41.45 45.06 45.11 47.60 51.43 53.91 55.90 54.89 54.78 54.30 53.72 53.56 54.39 54.03 54.12 54.37 54.11 54.16 54.20 52.95 50.82 50.18 49.94 49.49 50.93 50.58 50.56 49.26 48.85 49.88 50.28 50.35 50.46 51.43 51.36 50.46 51.96 53.11 52.00 51.68 50.00 49.10 48.78 47.78
48.32 49.01 44.77 37.65 39.24 42.65 44.57 43.48 48.78 53.21 56.09 56.72 55.55 54.05 52.94 52.37 53.27 54.30 53.87 53.27 53.24 53.32 53.58 52.57 51.68 49.63 50.11 51.03 50.77 50.63 48.60 48.58 50.54 50.30 50.50 50.13 50.19 50.54 52.11 51.11 50.86 51.17 53.28 52.30 51.01 50.67 50.28 49.93 49.20
47.15 46.56 49.15 44.12 42.17 42.51 44.92 47.59 51.76 53.98 54.12 54.87 55.06 54.27 53.09 52.53 52.22 52.28 52.60 53.08 53.15 52.27 51.29 51.08 50.75 50.09 50.55 50.58 50.12 50.44 50.80 50.43 50.79 51.16 51.51 50.84 51.62 51.39 51.77 51.54 50.20 50.01 52.94 52.16 51.32 50.14 51.43 50.95 50.81
49.87 49.67 45.52 46.14 39.28 37.93 41.69 43.04 47.33 50.20 52.38 55.01 54.71 54.86 53.51 52.37 51.81 51.95 52.40 51.50 50.56 50.60 50.75 50.29 50.04 49.40 48.97 49.16 50.03 49.18 49.89 50.41 51.09 51.25 51.08 51.36 51.48 51.52 51.50 51.29 50.55 49.29 50.33 52.34 51.81 50.39 51.33 52.28 51.01
46.99 46.64 45.95 47.80 45.26 41.92 40.03 43.68 51.54 53.11 54.47 55.22 56.38 56.19 54.22 52.73 52.32 51.93 50.84 50.70 50.45 49.90 49.69 49.65 49.27 49.05 48.71 47.89 47.28 49.77 50.14 50.45 50.74 50.34 50.56 51.02 51.35 50.73 49.51 50.20 51.39 49.89 48.53 49.17 50.97 49.75 50.14 50.61 50.70
48.91 48.07 49.28 45.01 42.81 43.70 44.30 45.27 52.97 55.35 55.53 56.11 56.71 55.87 54.47 53.64 52.68 51.50 51.39 50.48 49.81 48.73 48.58 48.62 47.74 48.32 48.69 49.20 48.54 49.23 49.62 50.26 50.05 49.91 49.47 49.38 49.30 50.00 48.80 49.65 51.00 51.00 50.62 48.49 49.32 49.66 49.86 49.29 48.80
MSLP
1014.22 1014.22 1014.20 1013.71 1013.08 1011.75 1011.83 1012.15 1012.38 1012.18 1012.33 1012.74 1012.67 1012.93 1013.06 1013.68 1013.82 1014.77 1015.40 1015.70 1015.84 1016.11 1016.51 1016.89 1017.34 1017.49 1017.63 1017.81 1017.71 1017.74 1017.93 1018.15 1018.24 1018.37 1018.48 1018.60 1018.65 1018.71 1018.70 1018.69 1018.73 1018.74 1018.79 1018.83 1018.80 1018.74 1018.73 1018.68 1018.66
1014.10 1014.29 1013.90 1012.92 1011.80 1010.82 1011.35 1011.99 1012.00 1012.10 1012.51 1012.63 1012.78 1012.93 1013.18 1013.82 1014.25 1014.93 1015.32 1015.93 1015.96 1016.28 1016.66 1016.84 1017.36 1017.56 1017.73 1017.83 1017.90 1017.90 1018.06 1018.21 1018.29 1018.37 1018.50 1018.57 1018.71 1018.75 1018.76 1018.73 1018.75 1018.75 1018.78 1018.77 1018.74 1018.72 1018.67 1018.61 1018.57
1013.79 1013.68 1012.79 1012.11 1011.37 1010.69 1011.07 1011.66 1011.87 1012.32 1012.67 1012.53 1012.65 1012.97 1013.45 1013.98 1014.57 1014.77 1015.25 1015.69 1016.09 1016.45 1016.68 1017.08 1017.35 1017.46 1017.54 1017.71 1017.85 1017.88 1017.97 1018.18 1018.26 1018.37 1018.48 1018.56 1018.67 1018.70 1018.73 1018.77 1018.78 1018.72 1018.69 1018.74 1018.69 1018.64 1018.62 1018.51 1018.43
1013.27 1013.24 1012.94 1011.78 1010.97 1011.34 1011.41 1011.73 1012.05 1012.31 1012.56 1012.57 1012.71 1013.18 1013.85 1014.17 1014.40 1014.60 1015.32 1015.61 1015.78 1016.19 1016.59 1017.21 1017.27 1017.38 1017.53 1017.65 1017.79 1017.86 1017.96 1018.15 1018.27 1018.31 1018.46 1018.54 1018.67 1018.74 1018.76 1018.78 1018.75 1018.73 1018.66 1018.67 1018.66 1018.54 1018.47 1018.37 1018.32
1013.12 1012.52 1011.64 1011.25 1011.16 1011.45 1011.76 1012.03 1012.24 1012.31 1012.48 1012.58 1012.90 1013.39 1013.85 1014.40 1014.78 1015.07 1015.36 1015.69 1015.79 1016.11 1016.51 1017.04 1017.30 1017.41 1017.47 1017.55 1017.71 1017.80 1017.95 1018.15 1018.27 1018.39 1018.48 1018.59 1018.61 1018.66 1018.68 1018.67 1018.69 1018.65 1018.61 1018.58 1018.54 1018.48 1018.34 1018.25 1018.20
1012.27 1012.24 1011.17 1010.65 1011.01 1011.40 1011.72 1012.16 1012.27 1012.41 1012.56 1012.78 1012.91 1013.25 1013.92 1014.56 1014.78 1015.39 1015.71 1015.82 1015.91 1016.23 1016.63 1017.00 1017.34 1017.34 1017.50 1017.65 1017.79 1017.88 1018.03 1018.15 1018.24 1018.32 1018.34 1018.47 1018.56 1018.62 1018.68 1018.71 1018.67 1018.58 1018.54 1018.46 1018.39 1018.35 1018.25 1018.12 1018.02
1011.74 1011.58 1011.07 1010.88 1011.03 1011.13 1011.54 1012.25 1012.13 1012.25 1012.36 1012.55 1012.63 1012.99 1013.98 1014.37 1014.76 1015.30 1015.63 1016.03 1016.33 1016.59 1016.82 1017.09 1017.12 1017.49 1017.73 1017.79 1017.91 1017.93 1018.13 1018.17 1018.28 1018.27 1018.25 1018.30 1018.37 1018.48 1018.57 1018.57 1018.50 1018.46 1018.45 1018.36 1018.32 1018.27 1018.14 1018.02 1017.90
1012.03 1011.61 1011.19 1011.03 1010.91 1011.15 1011.73 1011.99 1012.18 1012.11 1012.22 1012.44 1012.41 1012.55 1013.29 1013.81 1014.79 1015.38 1015.81 1016.25 1016.52 1016.82 1016.77 1017.03 1017.25 1017.19 1017.36 1017.58 1017.87 1018.03 1018.16 1018.17 1018.21 1018.28 1018.32 1018.31 1018.37 1018.41 1018.43 1018.45 1018.40 1018.39 1018.35 1018.28 1018.20 1018.11 1017.98 1017.91 1017.82
1012.21 1011.32 1010.67 1010.53 1010.81 1010.97 1011.73 1011.62 1012.19 1012.24 1011.92 1012.03 1012.08 1012.43 1012.79 1013.89 1014.91 1015.37 1015.84 1016.26 1016.56 1016.77 1016.88 1017.01 1017.06 1017.22 1017.33 1017.37 1017.81 1018.10 1018.18 1018.23 1018.31 1018.37 1018.49 1018.52 1018.29 1018.39 1018.39 1018.47 1018.46 1018.41 1018.39 1018.34 1018.28 1018.18 1018.01 1017.81 1017.53
1011.62 1011.09 1010.53 1010.46 1010.47 1010.62 1011.14 1011.24 1011.54 1011.68 1011.74 1011.81 1012.06 1012.58 1013.11 1014.13 1014.86 1015.17 1015.60 1015.79 1016.07 1016.28 1016.52 1016.79 1016.95 1017.11 1017.20 1017.41 1017.69 1017.81 1017.91 1018.05 1018.28 1018.32 1018.49 1018.35 1018.46 1018.46 1018.40 1018.49 1018.62 1018.59 1018.51 1018.32 1018.21 1018.05 1017.83 1017.47 1017.00
1011.54 1010.76 1010.48 1010.20 1010.41 1010.63 1010.88 1011.08 1011.26 1011.06 1011.21 1010.90 1011.01 1012.16 1013.12 1013.87 1014.59 1014.93 1015.20 1015.40 1015.66 1015.87 1016.22 1016.60 1016.92 1017.20 1017.14 1017.09 1017.55 1017.78 1017.90 1018.09 1018.27 1018.46 1018.58 1018.73 1018.72 1018.72 1018.53 1018.44 1018.34 1018.39 1018.24 1017.88 1017.77 1017.56 1017.31 1017.21 1017.04
1011.16 1010.61 1010.51 1010.07 1010.41 1010.62 1010.57 1010.60 1010.69 1010.49 1009.98 1010.34 1010.92 1011.81 1012.90 1013.51 1014.01 1014.43 1014.85 1015.20 1015.46 1015.63 1016.04 1016.45 1016.63 1016.97 1017.24 1017.24 1017.61 1017.87 1017.92 1018.15 1018.26 1018.57 1018.84 1018.90 1018.76 1018.89 1018.90 1018.70 1018.69 1018.60 1018.46 1018.37 1018.10 1017.72 1017.69 1017.41 1017.12
1011.11 1010.36 1010.23 1009.90 1010.31 1010.27 1010.31 1010.18 1010.15 1010.16 1010.36 1010.43 1010.96 1011.78 1012.56 1013.16 1013.72 1014.19 1014.62 1015.02 1015.42 1015.51 1015.73 1016.17 1016.48 1017.15 1017.42 1017.74 1017.81 1017.99 1018.11 1018.27 1018.61 1018.76 1019.02 1019.10 1019.06 1019.09 1019.00 1018.92 1018.78 1018.76 1018.63 1018.34 1018.09 1017.86 1017.64 1017.29 1016.90
1010.60 1010.33 1010.00 1009.82 1009.83 1010.06 1010.14 1010.27 1010.53 1009.50 1010.28 1010.52 1010.83 1011.40 1012.14 1012.56 1013.10 1013.84 1014.42 1014.71 1015.22 1015.45 1015.55 1015.92 1016.42 1016.92 1017.30 1017.77 1018.08 1018.25 1018.54 1018.73 1018.80 1019.02 1019.46 1019.71 1019.64 1019.67 1019.33 1019.15 1019.09 1019.05 1019.02 1018.79 1018.50 1018.19 1017.90 1017.48 1017.03
1010.59 1010.11 1009.63 1009.70 1009.78 1009.85 1010.15 1010.30 1009.52 1009.23 1009.93 1010.32 1010.71 1011.40 1011.78 1012.11 1012.82 1013.04 1013.52 1014.08 1014.58 1014.85 1015.40 1015.89 1016.55 1017.00 1017.38 1017.76 1018.27 1018.69 1018.74 1018.96 1019.29 1019.56 1019.85 1019.93 1019.95 1019.89 1019.78 1019.49 1019.38 1019.38 1019.30 1018.98 1018.65 1018.32 1017.99 1017.49 1016.96
1010.35 1010.06 1009.28 1009.40 1009.65 1010.02 1010.00 1008.66 1008.27 1009.34 1009.72 1010.00 1010.38 1010.91 1011.29 1011.62 1011.88 1012.71 1013.33 1013.72 1014.35 1014.72 1015.04 1015.86 1016.44 1017.02 1017.64 1018.02 1018.50 1018.92 1019.44 1019.67 1020.09 1020.34 1020.39 1020.42 1020.48 1020.54 1020.18 1019.87 1019.81 1019.89 1019.53 1019.20 1018.83 1018.42 1017.91 1017.44 1016.94
1010.37 1009.61 1009.46 1009.35 1009.42 1009.43 1009.64 1008.55 1008.30 1008.95 1009.41 1009.61 1010.12 1010.48 1010.78 1011.23 1011.83 1012.52 1012.92 1013.29 1013.86 1014.48 1015.20 1015.83 1016.71 1017.21 1017.83 1018.57 1018.91 1019.60 1020.12 1020.25 1020.67 1020.83 1021.03 1021.25 1021.06 1021.01 1020.79 1020.42 1020.26 1020.26 1019.65 1019.28 1018.94 1018.48 1018.09 1017.40 1016.83
1009.98 1009.82 1009.61 1009.38 1009.31 1009.28 1009.04 1008.50 1008.25 1008.99 1009.17 1008.99 1009.44 1010.08 1010.34 1010.68 1010.79 1012.20 1012.67 1013.25 1013.77 1014.68 1015.59 1016.61 1017.04 1017.75 1018.25 1018.80 1019.45 1020.01 1020.60 1020.96 1021.35 1021.60 1021.81 1021.82 1021.55 1021.43 1021.10 1020.69 1020.58 1020.23 1019.69 1019.33 1019.08 1018.74 1018.23 1017.67 1016.83
1010.53 1010.21 1009.89 1009.52 1009.56 1009.39 1008.96 1008.64 1008.51 1008.90 1009.21 1008.95 1008.98 1009.75 1010.16 1010.12 1011.44 1012.39 1013.27 1014.15 1015.00 1016.14 1016.38 1016.93 1017.62 1018.22 1018.42 1019.03 1019.37 1019.88 1020.61 1021.32 1021.78 1022.22 1022.69 1022.52 1022.12 1021.66 1021.23 1020.81 1020.42 1020.17 1019.63 1019.39 1018.99 1018.63 1018.07 1017.53 1017.00
1010.83 1010.43 1010.02 1009.70 1009.69 1009.46 1009.14 1008.58 1008.90 1009.26 1009.28 1009.43 1009.96 1010.52 1011.12 1011.83 1012.60 1013.40 1014.15 1014.85 1015.48 1016.26 1016.82 1017.21 1017.96 1018.52 1018.78 1019.37 1019.71 1020.11 1020.94 1021.76 1022.02 1022.60 1022.80 1022.51 1021.95 1021.65 1021.29 1021.17 1020.57 1020.27 1019.73 1019.31 1019.10 1018.69 1018.27 1018.09 1017.45
1010.60 1010.21 1009.83 1009.56 1009.63 1009.64 1009.47 1008.85 1009.11 1009.56 1010.09 1010.47 1011.39 1012.04 1012.26 1012.66 1012.84 1013.54 1014.37 1015.18 1016.04 1016.63 1017.23 1017.60 1018.54 1019.05 1019.40 1019.82 1020.17 1020.66 1021.26 1021.93 1022.50 1022.65 1022.38 1022.32 1022.08 1021.73 1021.47 1021.13 1020.79 1020.30 1019.75 1019.28 1019.29 1018.84 1018.55 1018.05 1017.52
1009.98 1009.83 1009.73 1009.68 1009.53 1009.48 1009.89 1009.06 1009.64 1010.21 1010.63 1011.52 1012.48 1013.07 1013.50 1013.65 1013.55 1014.03 1015.08 1015.96 1016.67 1017.38 1017.93 1018.07 1018.62 1019.26 1019.93 1020.11 1020.50 1021.29 1022.01 1022.63 1022.95 1022.82 1022.36 1022.06 1021.98 1021.56 1021.41 1021.07 1020.80 1020.39 1019.59 1019.52 1019.14 1018.76 1018.45 1018.14 1017.45
1009.72 1009.77 1009.69 1009.73 1009.70 1010.01 1009.97 1009.80 1010.25 1011.00 1011.45 1012.64 1013.76 1014.46 1014.95 1014.96 1014.80 1015.57 1016.24 1016.84 1017.47 1017.96 1018.28 1018.59 1018.84 1019.41 1020.03 1020.48 1020.73 1021.43 1021.80 1022.41 1022.78 1022.76 1022.17 1021.97 1021.76 1021.48 1021.16 1020.83 1020.49 1020.00 1019.75 1019.52 1019.09 1018.65 1018.25 1017.94 1017.51
1009.61 1009.84 1009.97 1010.15 1010.10 1009.99 1010.43 1010.53 1010.51 1011.82 1013.17 1013.72 1014.88 1015.77 1016.41 1016.83 1017.14 1017.59 1017.98 1018.34 1018.78 1019.18 1019.35 1019.57 1019.49 1019.96 1020.43 1020.42 1020.21 1021.27 1021.65 1022.35 1022.34 1022.87 1022.22 1021.82 1021.47 1021.05 1020.75 1020.58 1020.27 1019.91 1019.56 1019.20 1018.69 1018.36 1017.93 1017.49 1017.10
1009.49 1009.56 1009.72 1009.94 1010.02 1010.22 1011.17 1011.25 1011.41 1012.84 1014.07 1014.91 1015.76 1016.71 1017.50 1017.98 1018.25 1018.48 1018.74 1019.02 1019.34 1019.85 1020.21 1020.49 1020.83 1020.99 1021.36 1021.36 1020.87 1021.42 1022.04 1022.00 1022.44 1022.91 1022.21 1022.19 1021.31 1021.12 1020.51 1020.95 1020.71 1019.99 1019.22 1018.99 1018.32 1017.91 1017.49 1017.06 1016.60
1009.14 1009.43 1009.55 1009.87 1010.33 1010.57 1011.47 1011.39 1012.05 1013.50 1014.69 1015.56 1016.43 1017.21 1017.95 1018.45 1018.83 1019.01 1019.48 1019.87 1020.23 1020.69 1021.01 1021.19 1021.44 1021.84 1021.98 1021.89 1021.84 1021.92 1022.85 1021.64 1022.41 1022.67 1022.27 1021.78 1021.39 1020.99 1021.18 1020.90 1020.50 1019.78 1018.99 1018.63 1018.14 1017.66 1017.19 1016.67 1016.07
1009.47 1009.78 1010.13 1010.49 1011.53 1011.04 1011.04 1011.66 1012.28 1013.53 1014.52 1015.46 1016.17 1017.00 1017.80 1018.59 1019.25 1019.70 1020.18 1020.51 1020.87 1021.29 1021.71 1021.93 1022.09 1022.22 1022.35 1022.11 1022.32 1022.38 1022.33 1022.42 1022.60 1022.41 1022.10 1021.67 1021.35 1020.99 1020.67 1020.47 1020.08 1019.59 1018.85 1018.40 1018.05 1017.50 1016.83 1016.33 1015.63
1008.99 1009.92 1010.45 1010.60 1010.85 1010.82 1010.99 1011.25 1011.07 1012.56 1013.50 1014.48 1015.40 1016.29 1017.47 1018.52 1019.29 1019.89 1020.39 1021.05 1021.55 1021.99 1022.23 1022.41 1022.41 1022.67 1022.69 1022.48 1022.50 1022.82 1023.15 1022.90 1022.57 1022.15 1021.92 1021.72 1021.32 1020.88 1020.48 1019.98 1019.81 1019.35 1018.90 1018.15 1017.87 1017.37 1016.71 1015.93 1015.43
1009.51 1009.75 1010.54 1010.72 1010.98 1010.60 1010.67 1010.38 1010.72 1011.39 1012.37 1013.39 1014.41 1015.60 1016.97 1018.12 1019.12 1019.85 1020.71 1021.39 1021.93 1022.23 1022.37 1022.60 1022.81 1022.83 1022.94 1023.17 1023.34 1022.96 1023.12 1022.68 1022.40 1022.19 1022.06 1021.66 1021.11 1020.55 1020.08 1019.62 1019.44 1019.25 1018.85 1018.41 1017.76 1017.30 1016.67 1016.00 1015.33
1009.15 1009.37 1009.89 1009.97 1011.19 1011.44 1011.13 1010.58 1010.96 1011.53 1012.24 1013.18 1014.09 1015.40 1016.62 1017.81 1018.94 1020.05 1020.95 1021.62 1022.02 1022.32 1022.61 1022.82 1023.12 1023.25 1023.41 1023.56 1023.56 1023.24 1022.92 1022.63 1022.38 1022.22 1021.88 1021.34 1020.74 1020.31 1019.85 1019.25 1019.11 1018.99 1018.54 1018.32 1017.78 1017.12 1016.56 1016.03 1015.27
Wind_Speed
7 6 2 3 4 1 4 4 2 2 2 2 8 4 4 3 1 4 3 4 11 11 9 10 8 9 11 11 12 12 11 11 11 10 10 9 8 7 7 7 7 6 5 6 5 4 4 4 4
6 4 2 1 3 2 4 3 7 3 3 7 9 5 4 3 3 6 9 7 11 11 9 9 9 10 11 12 12 12 12 11 11 10 9 8 7 7 6 5 4 3 3 4 3 4 4 4 5
5 2 3 0 0 2 3 6 5 6 4 3 4 6 3 3 3 7 6 13 12 10 10 10 10 11 12 13 12 12 11 10 10 9 8 7 6 5 5 3 2 2 3 3 4 4 5 5 5
3 3 3 2 0 3 2 5 7 12 2 4 8 7 4 3 5 5 13 14 13 11 9 11 11 11 11 12 11 11 10 10 10 10 8 7 6 4 3 1 1 2 3 3 3 4 4 5 5
2 1 1 1 0 0 1 5 11 10 4 6 4 6 5 3 6 13 13 11 12 11 9 10 9 10 11 12 11 10 9 8 8 7 6 6 5 4 3 2 2 3 3 3 3 4 4 5 5
2 1 2 0 2 1 1 8 10 7 6 7 6 9 6 3 10 10 10 9 9 11 10 9 10 10 9 10 9 9 8 8 7 6 5 5 5 4 3 2 2 3 4 4 4 4 4 4 3
1 1 2 1 3 2 4 10 13 8 9 6 11 9 2 7 8 10 10 9 8 8 8 8 9 9 8 8 8 8 8 7 6 5 5 6 6 5 4 3 3 2 3 3 3 4 4 5 4
3 1 4 2 1 3 6 7 6 6 6 8 7 6 6 12 13 11 9 9 8 8 8 8 7 9 8 9 8 8 8 7 6 5 6 5 6 5 3 2 2 2 1 3 4 5 6 6 7
2 2 4 4 6 3 8 9 5 3 9 5 9 4 4 15 14 11 9 9 8 8 8 8 9 8 8 8 8 8 8 6 5 6 5 5 4 4 3 2 1 2 5 7 8 9 9 8 9
1 2 4 2 3 3 12 10 11 8 9 8 9 4 14 18 14 13 12 12 12 12 12 9 9 9 9 7 8 7 6 5 4 4 4 2 2 1 3 4 7 7 8 7 8 9 10 8 7
4 3 4 6 5 4 11 10 9 9 10 14 18 13 18 18 15 14 14 13 12 12 10 11 11 10 10 9 6 4 4 4 3 3 1 2 2 3 3 3 4 5 6 5 7 8 7 9 8
4 6 5 1 7 7 8 10 12 15 5 14 10 15 19 19 18 16 14 14 14 14 13 12 12 11 10 6 6 5 4 3 3 2 3 3 2 3 4 4 5 5 5 7 7 6 8 10 10
4 4 5 9 5 11 7 14 12 17 8 8 12 16 20 18 17 15 14 12 12 14 14 14 12 9 7 6 4 4 3 2 3 3 4 4 4 4 4 4 4 4 5 6 7 8 9 10 11
3 6 8 5 4 5 9 9 9 12 15 8 16 19 20 21 21 16 15 15 15 14 15 14 13 11 9 6 5 2 1 2 3 5 6 7 5 5 5 5 5 6 7 8 8 9 9 10 11
2 6 1 2 3 4 10 6 17 12 15 16 17 16 19 20 19 21 19 18 17 16 14 14 11 9 9 7 3 0 1 4 5 6 8 8 8 7 7 6 6 7 8 10 9 10 10 10 11
1 1 3 4 3 4 2 7 14 8 14 17 16 15 17 21 23 19 18 16 16 15 15 12 10 10 8 5 4 4 5 6 6 6 7 10 10 10 7 6 6 8 8 8 8 9 10 11 11
1 3 2 2 2 8 7 3 1 12 13 14 16 16 17 18 19 18 19 18 16 15 12 11 8 7 7 6 7 8 9 7 7 7 7 10 10 10 8 7 7 9 8 8 9 9 10 11 11
5 4 2 2 4 3 7 11 8 7 14 17 17 16 17 19 23 15 17 15 13 8 6 5 5 7 9 8 8 8 7 7 7 8 8 10 8 9 8 7 8 8 8 9 9 11 10 11 11
3 1 2 4 2 4 7 8 6 5 13 18 19 16 18 21 10 8 11 6 4 7 9 9 10 9 8 7 7 5 5 6 6 6 10 10 8 9 8 7 8 8 8 9 10 10 12 10 11
5 5 7 5 1 4 2 6 2 3 7 14 12 12 11 7 4 0 4 6 6 9 11 12 12 10 8 5 5 5 4 4 4 5 7 8 9 9 8 9 9 10 9 10 10 11 9 9 10
6 8 6 5 1 2 4 4 4 4 4 5 7 8 7 6 6 7 9 10 11 12 12 15 14 13 11 10 8 6 5 3 4 6 5 7 9 9 9 9 9 10 9 9 10 9 11 9 10
5 8 8 5 5 3 2 3 3 7 10 11 12 12 12 11 5 9 11 12 13 13 14 16 16 15 11 11 10 11 6 3 3 3 5 6 7 8 9 9 10 10 9 10 9 9 9 9 10
1 1 5 4 4 2 2 4 4 5 6 9 12 12 12 13 7 8 9 12 13 13 13 13 16 14 12 10 10 7 8 3 1 4 5 6 6 7 9 9 10 11 9 10 10 10 10 8 8
7 4 5 3 2 4 2 4 3 3 4 6 7 9 9 8 8 9 11 13 13 11 10 10 12 12 8 9 11 8 10 4 4 5 5 5 5 6 9 13 12 11 10 10 10 11 11 10 9
4 3 3 4 4 3 2 3 3 2 0 2 2 3 6 5 6 9 12 12 11 10 9 8 9 10 7 8 11 10 8 6 4 4 5 7 6 7 10 11 10 10 10 11 11 10 10 10 9
4 4 3 5 4 1 2 4 3 2 4 3 3 4 4 5 6 10 11 10 9 8 7 7 8 8 7 9 10 8 5 5 3 3 5 5 6 7 9 10 10 10 11 11 11 9 8 10 9
6 5 3 6 2 3 1 2 5 7 4 4 5 5 6 8 8 10 10 8 8 8 8 8 7 7 7 8 7 6 6 4 3 5 5 6 8 7 9 10 9 10 11 10 11 8 11 10 10
2 9 4 2 5 6 4 3 5 10 9 8 9 8 7 8 10 9 8 8 7 7 7 7 7 7 7 7 7 5 4 4 5 6 8 9 9 9 10 10 8 9 10 11 10 9 10 12 9
5 4 4 4 1 4 4 4 2 12 12 11 9 8 9 11 11 10 8 7 7 6 6 6 7 7 7 6 3 3 4 6 6 7 8 9 10 9 10 9 8 9 9 10 11 10 11 12 12
1 3 5 5 6 1 2 2 2 7 7 8 8 9 10 11 11 10 8 7 6 6 6 7 6 5 5 5 4 5 5 6 6 7 9 10 10 10 9 8 8 9 10 9 11 12 11 11 11
Wind_Direction
147 165 160 204 226 172 134 186 292 173 94 67 136 192 181 46 350 9 92 112 127 120 130 139 131 131 131 125 117 108 101 98 100 100 101 104 111 105 96 88 77 75 68 63 58 48 38 26 15
137 138 180 184 244 187 124 175 209 191 57 127 122 121 87 66 65 101 138 124 130 126 132 139 125 126 124 120 115 113 116 119 121 123 125 123 114 106 105 101 91 70 54 47 24 8 3 356 352
142 220 260 196 94 31 97 198 153 143 91 122 126 55 49 42 98 136 116 137 133 127 134 139 136 136 134 131 130 127 127 129 129 127 129 129 127 130 122 110 77 22 11 2 356 346 341 337 334
164 172 128 264 297 85 50 160 144 145 140 53 114 86 100 344 149 142 142 145 139 136 142 144 146 139 134 133 127 126 127 130 134 141 144 140 140 134 129 117 329 313 331 340 337 326 314 313 313
74 205 188 152 8 359 202 168 156 151 134 138 159 132 116 112 105 134 146 152 144 139 143 150 145 142 143 141 141 136 133 134 133 134 136 147 155 168 181 206 261 298 313 313 303 297 294 301 301
158 283 209 136 75 41 97 154 159 163 158 148 127 133 127 129 148 144 147 148 147 143 148 152 152 152 151 145 140 136 137 140 145 152 159 174 182 193 210 225 257 288 303 298 290 293 293 304 292
211 203 124 292 41 111 124 154 170 155 157 163 143 149 100 177 149 151 154 143 150 151 156 160 157 155 149 145 148 144 146 143 145 146 174 189 190 193 205 219 245 279 314 323 320 315 301 291 275
108 143 151 201 183 106 138 157 174 168 157 141 176 161 174 178 159 154 144 151 159 166 166 169 169 162 163 161 155 154 152 156 154 132 114 116 155 168 156 147 171 235 322 339 322 321 302 297 303
179 186 141 142 178 130 169 180 180 129 149 182 181 156 169 146 155 149 153 165 177 178 178 181 176 170 172 161 155 154 159 158 141 143 123 136 135 145 163 83 7 325 343 338 341 342 333 320 280
193 218 179 192 179 180 178 190 162 174 162 203 196 119 141 150 164 168 181 184 188 181 183 183 184 182 177 168 164 164 160 153 159 159 145 145 125 106 333 359 358 355 348 337 341 333 322 293 303
146 208 200 215 204 170 176 181 175 174 195 201 201 173 162 164 175 184 193 194 188 183 180 189 190 188 185 175 169 171 166 165 165 155 152 41 9 9 345 328 329 333 342 320 321 313 309 312 307
235 236 218 237 194 172 182 173 195 202 201 206 201 177 169 175 183 191 195 196 193 188 190 191 192 192 191 177 180 175 177 173 158 85 31 6 331 339 338 331 331 326 339 327 325 314 316 306 305
234 267 222 259 226 226 182 194 189 219 225 216 190 176 182 182 190 197 202 208 201 202 195 198 197 190 191 195 185 198 198 181 79 55 38 3 339 346 338 356 345 340 335 331 322 318 319 312 310
214 259 275 296 298 197 198 192 198 227 203 194 189 186 187 187 191 193 203 208 209 211 206 201 199 190 187 201 210 216 231 98 72 66 57 54 33 16 5 359 356 352 346 339 331 331 322 315 310
266 289 315 81 131 159 162 190 220 211 195 198 198 189 191 196 194 202 203 210 208 213 209 209 205 195 195 185 201 117 111 91 79 77 62 49 37 26 6 0 353 352 340 331 327 320 314 308 305
265 252 186 66 167 128 245 195 230 190 183 206 204 196 197 203 204 206 209 215 211 220 213 204 201 194 195 159 127 98 84 80 69 56 51 40 33 24 6 352 346 346 328 324 322 318 313 309 306
51 193 156 99 37 152 227 244 349 180 190 208 205 205 205 211 213 210 213 218 215 218 220 208 192 191 166 127 103 93 86 74 64 53 40 24 19 9 353 345 341 335 327 324 323 320 316 312 309
206 189 197 205 176 202 206 240 255 203 205 217 212 207 211 216 219 206 218 222 223 214 182 141 139 127 129 114 106 95 81 69 52 39 29 16 6 2 354 343 337 333 327 324 329 321 318 309 308
145 174 270 266 276 251 218 254 268 184 224 229 224 211 217 223 226 224 225 228 147 78 119 125 120 123 126 129 125 108 83 66 57 36 16 6 1 3 354 344 337 333 325 322 320 317 316 318 322
188 208 225 266 248 212 205 263 256 283 258 254 253 248 261 267 274 133 127 108 90 106 111 101 99 101 98 109 92 91 105 100 83 32 7 1 1 0 350 343 338 338 324 322 325 329 326 320 317
205 214 207 241 119 90 299 225 17 37 57 97 55 25 20 359 279 171 139 120 110 106 110 104 96 88 84 92 101 104 101 67 16 12 356 359 358 357 351 341 335 331 321 333 324 325 315 311 308
230 218 248 204 187 251 315 281 69 2 71 45 23 13 1 340 277 159 138 123 118 115 114 110 107 102 89 91 88 79 69 28 349 318 357 344 359 354 345 340 336 331 338 328 324 317 311 304 301
326 293 182 165 137 239 127 260 100 4 38 13 10 12 14 18 63 105 115 120 118 121 117 113 109 107 109 103 98 103 107 69 343 335 345 358 353 350 351 347 342 344 338 322 317 315 313 302 297
154 114 77 86 118 243 56 291 142 14 323 320 8 24 29 42 71 90 102 108 107 109 109 108 110 106 108 113 108 102 82 103 31 355 348 353 348 350 4 355 348 335 328 325 323 313 304 302 295
163 156 141 199 213 281 78 228 2 7 93 285 329 45 49 57 88 120 123 119 117 104 92 86 86 92 108 102 87 94 103 89 59 329 355 328 346 346 3 342 331 324 335 327 324 318 309 304 295
175 205 174 212 218 160 136 218 115 62 121 145 133 123 111 103 122 123 117 112 112 106 91 90 85 82 72 71 83 85 81 77 46 337 333 331 325 332 325 316 319 327 337 329 329 321 315 306 298
145 192 73 112 71 241 166 217 208 168 176 183 187 179 147 130 134 133 129 127 108 88 67 62 68 73 75 80 81 72 55 42 346 330 321 316 314 313 311 313 314 327 329 337 333 329 330 324 317
220 132 155 130 189 236 180 236 236 201 210 209 212 202 159 146 148 148 134 110 98 83 72 65 65 67 69 70 59 39 353 346 344 335 326 312 310 310 312 316 319 331 324 335 337 333 339 343 343
148 176 68 93 324 238 232 217 201 187 197 204 211 191 173 167 163 153 139 124 103 88 78 71 69 66 62 51 13 23 351 356 342 332 313 312 306 317 313 317 323 326 327 331 331 331 330 335 338
255 165 170 225 183 154 290 190 198 173 180 201 203 187 174 171 166 158 147 127 110 90 78 79 72 62 48 33 355 5 349 346 339 329 327 323 320 312 312 328 325 319 326 330 330 329 332 332 336